Year,Month,Day,Hour,Minute,Value (Times are PST for temperature in C)
2023,05,14,00,00,18.40
2023,05,14,00,01,18.40
2023,05,14,00,02,18.30
2023,05,14,00,03,18.30
2023,05,14,00,04,18.30
2023,05,14,00,05,18.30
2023,05,14,00,06,18.20
2023,05,14,00,07,18.20
2023,05,14,00,08,18.20
2023,05,14,00,09,18.20
2023,05,14,00,10,18.20
2023,05,14,00,11,18.10
2023,05,14,00,12,18.10
2023,05,14,00,13,18.10
2023,05,14,00,14,18.10
2023,05,14,00,15,18.10
2023,05,14,00,16,18.10
2023,05,14,00,17,18.10
2023,05,14,00,18,18.00
2023,05,14,00,19,18.00
2023,05,14,00,20,17.90
2023,05,14,00,21,17.90
2023,05,14,00,22,17.90
2023,05,14,00,23,17.80
2023,05,14,00,24,17.80
2023,05,14,00,25,17.80
2023,05,14,00,26,17.80
2023,05,14,00,27,17.80
2023,05,14,00,28,17.90
2023,05,14,00,29,17.90
2023,05,14,00,30,17.90
2023,05,14,00,31,17.90
2023,05,14,00,32,17.90
2023,05,14,00,33,18.00
2023,05,14,00,34,18.00
2023,05,14,00,35,18.00
2023,05,14,00,36,18.00
2023,05,14,00,37,18.00
2023,05,14,00,38,18.10
2023,05,14,00,39,18.10
2023,05,14,00,40,18.10
2023,05,14,00,41,18.10
2023,05,14,00,42,18.20
2023,05,14,00,43,18.20
2023,05,14,00,44,18.20
2023,05,14,00,45,18.20
2023,05,14,00,46,18.20
2023,05,14,00,47,18.20
2023,05,14,00,48,18.30
2023,05,14,00,49,18.30
2023,05,14,00,50,18.30
2023,05,14,00,51,18.20
2023,05,14,00,52,18.20
2023,05,14,00,53,18.20
2023,05,14,00,54,18.20
2023,05,14,00,55,18.10
2023,05,14,00,56,18.10
2023,05,14,00,57,18.00
2023,05,14,00,58,17.90
2023,05,14,00,59,17.90
2023,05,14,01,00,17.90
2023,05,14,01,01,17.80
2023,05,14,01,02,17.80
2023,05,14,01,03,17.80
2023,05,14,01,04,17.80
2023,05,14,01,05,17.90
2023,05,14,01,06,17.90
2023,05,14,01,07,17.90
2023,05,14,01,08,18.00
2023,05,14,01,09,18.00
2023,05,14,01,10,18.00
2023,05,14,01,11,18.00
2023,05,14,01,12,18.00
2023,05,14,01,13,18.00
2023,05,14,01,14,18.00
2023,05,14,01,15,18.00
2023,05,14,01,16,17.90
2023,05,14,01,17,17.90
2023,05,14,01,18,17.90
2023,05,14,01,19,17.90
2023,05,14,01,20,17.80
2023,05,14,01,21,17.80
2023,05,14,01,22,17.80
2023,05,14,01,23,17.80
2023,05,14,01,24,17.80
2023,05,14,01,25,17.80
2023,05,14,01,26,17.80
2023,05,14,01,27,17.80
2023,05,14,01,28,17.80
2023,05,14,01,29,17.80
2023,05,14,01,30,17.80
2023,05,14,01,31,17.80
2023,05,14,01,32,17.80
2023,05,14,01,33,17.80
2023,05,14,01,34,17.80
2023,05,14,01,35,17.80
2023,05,14,01,36,17.80
2023,05,14,01,37,17.80
2023,05,14,01,38,17.80
2023,05,14,01,39,17.70
2023,05,14,01,40,17.60
2023,05,14,01,41,17.50
2023,05,14,01,42,17.30
2023,05,14,01,43,17.10
2023,05,14,01,44,17.00
2023,05,14,01,45,16.80
2023,05,14,01,46,16.70
2023,05,14,01,47,16.50
2023,05,14,01,48,16.40
2023,05,14,01,49,16.30
2023,05,14,01,50,16.20
2023,05,14,01,51,16.10
2023,05,14,01,52,16.00
2023,05,14,01,53,15.90
2023,05,14,01,54,15.80
2023,05,14,01,55,15.80
2023,05,14,01,56,15.80
2023,05,14,01,57,15.70
2023,05,14,01,58,15.70
2023,05,14,01,59,15.70
2023,05,14,02,00,15.70
2023,05,14,02,01,15.70
2023,05,14,02,02,15.70
2023,05,14,02,03,15.70
2023,05,14,02,04,15.80
2023,05,14,02,05,15.80
2023,05,14,02,06,15.90
2023,05,14,02,07,16.00
2023,05,14,02,08,16.20
2023,05,14,02,09,16.30
2023,05,14,02,10,16.40
2023,05,14,02,11,16.60
2023,05,14,02,12,16.70
2023,05,14,02,13,16.80
2023,05,14,02,14,16.80
2023,05,14,02,15,16.80
2023,05,14,02,16,16.90
2023,05,14,02,17,16.90
2023,05,14,02,18,16.80
2023,05,14,02,19,16.80
2023,05,14,02,20,16.70
2023,05,14,02,21,16.70
2023,05,14,02,22,16.60
2023,05,14,02,23,16.50
2023,05,14,02,24,16.50
2023,05,14,02,25,16.50
2023,05,14,02,26,16.40
2023,05,14,02,27,16.40
2023,05,14,02,28,16.40
2023,05,14,02,29,16.40
2023,05,14,02,30,16.40
2023,05,14,02,31,16.40
2023,05,14,02,32,16.40
2023,05,14,02,33,16.40
2023,05,14,02,34,16.40
2023,05,14,02,35,16.50
2023,05,14,02,36,16.60
2023,05,14,02,37,16.60
2023,05,14,02,38,16.70
2023,05,14,02,39,16.80
2023,05,14,02,40,16.80
2023,05,14,02,41,16.90
2023,05,14,02,42,17.00
2023,05,14,02,43,17.00
2023,05,14,02,44,17.20
2023,05,14,02,45,17.20
2023,05,14,02,46,17.30
2023,05,14,02,47,17.40
2023,05,14,02,48,17.50
2023,05,14,02,49,17.50
2023,05,14,02,50,17.60
2023,05,14,02,51,17.60
2023,05,14,02,52,17.60
2023,05,14,02,53,17.70
2023,05,14,02,54,17.70
2023,05,14,02,55,17.70
2023,05,14,02,56,17.70
2023,05,14,02,57,17.60
2023,05,14,02,58,17.60
2023,05,14,02,59,17.60
2023,05,14,03,00,17.50
2023,05,14,03,01,17.50
2023,05,14,03,02,17.40
2023,05,14,03,03,17.40
2023,05,14,03,04,17.30
2023,05,14,03,05,17.30
2023,05,14,03,06,17.20
2023,05,14,03,07,17.10
2023,05,14,03,08,17.00
2023,05,14,03,09,17.00
2023,05,14,03,10,16.90
2023,05,14,03,11,16.80
2023,05,14,03,12,16.80
2023,05,14,03,13,16.70
2023,05,14,03,14,16.60
2023,05,14,03,15,16.60
2023,05,14,03,16,16.50
2023,05,14,03,17,16.40
2023,05,14,03,18,16.40
2023,05,14,03,19,16.30
2023,05,14,03,20,16.30
2023,05,14,03,21,16.30
2023,05,14,03,22,16.20
2023,05,14,03,23,16.20
2023,05,14,03,24,16.10
2023,05,14,03,25,16.10
2023,05,14,03,26,16.00
2023,05,14,03,27,15.90
2023,05,14,03,28,15.80
2023,05,14,03,29,15.70
2023,05,14,03,30,15.70
2023,05,14,03,31,15.60
2023,05,14,03,32,15.50
2023,05,14,03,33,15.40
2023,05,14,03,34,15.40
2023,05,14,03,35,15.30
2023,05,14,03,36,15.30
2023,05,14,03,37,15.30
2023,05,14,03,38,15.20
2023,05,14,03,39,15.20
2023,05,14,03,40,15.20
2023,05,14,03,41,15.20
2023,05,14,03,42,15.20
2023,05,14,03,43,15.20
2023,05,14,03,44,15.20
2023,05,14,03,45,15.20
2023,05,14,03,46,15.20
2023,05,14,03,47,15.20
2023,05,14,03,48,15.20
2023,05,14,03,49,15.30
2023,05,14,03,50,15.30
2023,05,14,03,51,15.30
2023,05,14,03,52,15.30
2023,05,14,03,53,15.30
2023,05,14,03,54,15.40
2023,05,14,03,55,15.50
2023,05,14,03,56,15.50
2023,05,14,03,57,15.60
2023,05,14,03,58,15.60
2023,05,14,03,59,15.70
2023,05,14,04,00,15.70
2023,05,14,04,01,15.70
2023,05,14,04,02,15.80
2023,05,14,04,03,15.80
2023,05,14,04,04,15.90
2023,05,14,04,05,16.00
2023,05,14,04,06,16.10
2023,05,14,04,07,16.20
2023,05,14,04,08,16.30
2023,05,14,04,09,16.40
2023,05,14,04,10,16.60
2023,05,14,04,11,16.70
2023,05,14,04,12,16.80
2023,05,14,04,13,17.00
2023,05,14,04,14,17.10
2023,05,14,04,15,17.20
2023,05,14,04,16,17.30
2023,05,14,04,17,17.40
2023,05,14,04,18,17.50
2023,05,14,04,19,17.60
2023,05,14,04,20,17.70
2023,05,14,04,21,17.80
2023,05,14,04,22,17.90
2023,05,14,04,23,18.00
2023,05,14,04,24,18.00
2023,05,14,04,25,18.00
2023,05,14,04,26,18.00
2023,05,14,04,27,18.10
2023,05,14,04,28,18.10
2023,05,14,04,29,18.00
2023,05,14,04,30,18.00
2023,05,14,04,31,18.00
2023,05,14,04,32,18.00
2023,05,14,04,33,18.00
2023,05,14,04,34,18.00
2023,05,14,04,35,18.10
2023,05,14,04,36,18.10
2023,05,14,04,37,18.20
2023,05,14,04,38,18.30
2023,05,14,04,39,18.30
2023,05,14,04,40,18.40
2023,05,14,04,41,18.50
2023,05,14,04,42,18.50
2023,05,14,04,43,18.60
2023,05,14,04,44,18.70
2023,05,14,04,45,18.70
2023,05,14,04,46,18.80
2023,05,14,04,47,18.80
2023,05,14,04,48,18.90
2023,05,14,04,49,18.90
2023,05,14,04,50,19.00
2023,05,14,04,51,19.00
2023,05,14,04,52,19.10
2023,05,14,04,53,19.20
2023,05,14,04,54,19.20
2023,05,14,04,55,19.20
2023,05,14,04,56,19.30
2023,05,14,04,57,19.30
2023,05,14,04,58,19.30
2023,05,14,04,59,19.30
2023,05,14,05,00,19.30
2023,05,14,05,01,19.30
2023,05,14,05,02,19.30
2023,05,14,05,03,19.30
2023,05,14,05,04,19.40
2023,05,14,05,05,19.40
2023,05,14,05,06,19.50
2023,05,14,05,07,19.50
2023,05,14,05,08,19.60
2023,05,14,05,09,19.60
2023,05,14,05,10,19.60
2023,05,14,05,11,19.50
2023,05,14,05,12,19.50
2023,05,14,05,13,19.40
2023,05,14,05,14,19.40
2023,05,14,05,15,19.30
2023,05,14,05,16,19.30
2023,05,14,05,17,19.20
2023,05,14,05,18,19.20
2023,05,14,05,19,19.10
2023,05,14,05,20,19.10
2023,05,14,05,21,18.90
2023,05,14,05,22,18.80
2023,05,14,05,23,18.80
2023,05,14,05,24,18.70
2023,05,14,05,25,18.60
2023,05,14,05,26,18.50
2023,05,14,05,27,18.40
2023,05,14,05,28,18.30
2023,05,14,05,29,18.20
2023,05,14,05,30,18.20
2023,05,14,05,31,18.10
2023,05,14,05,32,18.00
2023,05,14,05,33,17.90
2023,05,14,05,34,17.80
2023,05,14,05,35,17.80
2023,05,14,05,36,17.70
2023,05,14,05,37,17.70
2023,05,14,05,38,17.70
2023,05,14,05,39,17.60
2023,05,14,05,40,17.60
2023,05,14,05,41,17.60
2023,05,14,05,42,17.60
2023,05,14,05,43,17.60
2023,05,14,05,44,17.60
2023,05,14,05,45,17.60
2023,05,14,05,46,17.60
2023,05,14,05,47,17.60
2023,05,14,05,48,17.60
2023,05,14,05,49,17.70
2023,05,14,05,50,17.70
2023,05,14,05,51,17.70
2023,05,14,05,52,17.70
2023,05,14,05,53,17.70
2023,05,14,05,54,17.70
2023,05,14,05,55,17.70
2023,05,14,05,56,17.80
2023,05,14,05,57,17.80
2023,05,14,05,58,17.80
2023,05,14,05,59,17.90
2023,05,14,06,00,18.00
2023,05,14,06,01,18.00
2023,05,14,06,02,18.10
2023,05,14,06,03,18.10
2023,05,14,06,04,18.20
2023,05,14,06,05,18.30
2023,05,14,06,06,18.30
2023,05,14,06,07,18.30
2023,05,14,06,08,18.40
2023,05,14,06,09,18.40
2023,05,14,06,10,18.40
2023,05,14,06,11,18.30
2023,05,14,06,12,18.30
2023,05,14,06,13,18.30
2023,05,14,06,14,18.30
2023,05,14,06,15,18.30
2023,05,14,06,16,18.20
2023,05,14,06,17,18.20
2023,05,14,06,18,18.20
2023,05,14,06,19,18.20
2023,05,14,06,20,18.10
2023,05,14,06,21,18.10
2023,05,14,06,22,18.10
2023,05,14,06,23,18.10
2023,05,14,06,24,18.00
2023,05,14,06,25,18.00
2023,05,14,06,26,18.00
2023,05,14,06,27,17.90
2023,05,14,06,28,17.90
2023,05,14,06,29,17.90
2023,05,14,06,30,17.90
2023,05,14,06,31,17.90
2023,05,14,06,32,17.90
2023,05,14,06,33,17.90
2023,05,14,06,34,18.00
2023,05,14,06,35,18.00
2023,05,14,06,36,18.00
2023,05,14,06,37,18.10
2023,05,14,06,38,18.10
2023,05,14,06,39,18.10
2023,05,14,06,40,18.10
2023,05,14,06,41,18.10
2023,05,14,06,42,18.10
2023,05,14,06,43,18.10
2023,05,14,06,44,18.10
2023,05,14,06,45,18.10
2023,05,14,06,46,18.10
2023,05,14,06,47,18.10
2023,05,14,06,48,18.00
2023,05,14,06,49,18.00
2023,05,14,06,50,18.00
2023,05,14,06,51,17.90
2023,05,14,06,52,17.90
2023,05,14,06,53,17.90
2023,05,14,06,54,17.90
2023,05,14,06,55,17.80
2023,05,14,06,56,17.80
2023,05,14,06,57,17.90
2023,05,14,06,58,17.90
2023,05,14,06,59,18.00
2023,05,14,07,00,18.10
2023,05,14,07,01,18.10
2023,05,14,07,02,18.20
2023,05,14,07,03,18.20
2023,05,14,07,04,18.30
2023,05,14,07,05,18.30
2023,05,14,07,06,18.40
2023,05,14,07,07,18.40
2023,05,14,07,08,18.40
2023,05,14,07,09,18.40
2023,05,14,07,10,18.50
2023,05,14,07,11,18.50
2023,05,14,07,12,18.50
2023,05,14,07,13,18.50
2023,05,14,07,14,18.60
2023,05,14,07,15,18.60
2023,05,14,07,16,18.60
2023,05,14,07,17,18.60
2023,05,14,07,18,18.60
2023,05,14,07,19,18.60
2023,05,14,07,20,18.60
2023,05,14,07,21,18.60
2023,05,14,07,22,18.60
2023,05,14,07,23,18.60
2023,05,14,07,24,18.60
2023,05,14,07,25,18.60
2023,05,14,07,26,18.60
2023,05,14,07,27,18.70
2023,05,14,07,28,18.70
2023,05,14,07,29,18.70
2023,05,14,07,30,18.70
2023,05,14,07,31,18.70
2023,05,14,07,32,18.70
2023,05,14,07,33,18.70
2023,05,14,07,34,18.70
2023,05,14,07,35,18.80
2023,05,14,07,36,18.80
2023,05,14,07,37,18.80
2023,05,14,07,38,18.90
2023,05,14,07,39,18.90
2023,05,14,07,40,19.00
2023,05,14,07,41,19.10
2023,05,14,07,42,19.10
2023,05,14,07,43,19.20
2023,05,14,07,44,19.30
2023,05,14,07,45,19.30
2023,05,14,07,46,19.30
2023,05,14,07,47,19.40
2023,05,14,07,48,19.40
2023,05,14,07,49,19.50
2023,05,14,07,50,19.60
2023,05,14,07,51,19.70
2023,05,14,07,52,19.70
2023,05,14,07,53,19.80
2023,05,14,07,54,19.90
2023,05,14,07,55,19.90
2023,05,14,07,56,20.00
2023,05,14,07,57,20.00
2023,05,14,07,58,20.00
2023,05,14,07,59,20.10
2023,05,14,08,00,20.10
2023,05,14,08,01,20.10
2023,05,14,08,02,20.10
2023,05,14,08,03,20.20
2023,05,14,08,04,20.20
2023,05,14,08,05,20.20
2023,05,14,08,06,20.30
2023,05,14,08,07,20.30
2023,05,14,08,08,20.30
2023,05,14,08,09,20.30
2023,05,14,08,10,20.40
2023,05,14,08,11,20.40
2023,05,14,08,12,20.40
2023,05,14,08,13,20.50
2023,05,14,08,14,20.60
2023,05,14,08,15,20.60
2023,05,14,08,16,20.70
2023,05,14,08,17,20.80
2023,05,14,08,18,20.80
2023,05,14,08,19,20.90
2023,05,14,08,20,20.90
2023,05,14,08,21,21.00
2023,05,14,08,22,21.00
2023,05,14,08,23,21.10
2023,05,14,08,24,21.10
2023,05,14,08,25,21.20
2023,05,14,08,26,21.20
2023,05,14,08,27,21.20
2023,05,14,08,28,21.30
2023,05,14,08,29,21.30
2023,05,14,08,30,21.40
2023,05,14,08,31,21.50
2023,05,14,08,32,21.50
2023,05,14,08,33,21.50
2023,05,14,08,34,21.60
2023,05,14,08,35,21.60
2023,05,14,08,36,21.70
2023,05,14,08,37,21.70
2023,05,14,08,38,21.70
2023,05,14,08,39,21.70
2023,05,14,08,40,21.70
2023,05,14,08,41,21.70
2023,05,14,08,42,21.70
2023,05,14,08,43,21.70
2023,05,14,08,44,21.70
2023,05,14,08,45,21.70
2023,05,14,08,46,21.70
2023,05,14,08,47,21.70
2023,05,14,08,48,21.70
2023,05,14,08,49,21.70
2023,05,14,08,50,21.70
2023,05,14,08,51,21.70
2023,05,14,08,52,21.70
2023,05,14,08,53,21.70
2023,05,14,08,54,21.70
2023,05,14,08,55,21.70
2023,05,14,08,56,21.80
2023,05,14,08,57,21.80
2023,05,14,08,58,21.80
2023,05,14,08,59,21.90
2023,05,14,09,00,21.90
2023,05,14,09,01,21.90
2023,05,14,09,02,22.00
2023,05,14,09,03,22.00
2023,05,14,09,04,22.10
2023,05,14,09,05,22.10
2023,05,14,09,06,22.20
2023,05,14,09,07,22.20
2023,05,14,09,08,22.30
2023,05,14,09,09,22.30
2023,05,14,09,10,22.40
2023,05,14,09,11,22.40
2023,05,14,09,12,22.50
2023,05,14,09,13,22.50
2023,05,14,09,14,22.50
2023,05,14,09,15,22.40
2023,05,14,09,16,22.40
2023,05,14,09,17,22.40
2023,05,14,09,18,22.40
2023,05,14,09,19,22.40
2023,05,14,09,20,22.50
2023,05,14,09,21,22.60
2023,05,14,09,22,22.60
2023,05,14,09,23,22.60
2023,05,14,09,24,22.60
2023,05,14,09,25,22.60
2023,05,14,09,26,22.60
2023,05,14,09,27,22.60
2023,05,14,09,28,22.60
2023,05,14,09,29,22.60
2023,05,14,09,30,22.60
2023,05,14,09,31,22.60
2023,05,14,09,32,22.60
2023,05,14,09,33,22.60
2023,05,14,09,34,22.60
2023,05,14,09,35,22.60
2023,05,14,09,36,22.70
2023,05,14,09,37,22.70
2023,05,14,09,38,22.60
2023,05,14,09,39,22.60
2023,05,14,09,40,22.60
2023,05,14,09,41,22.60
2023,05,14,09,42,22.60
2023,05,14,09,43,22.60
2023,05,14,09,44,22.60
2023,05,14,09,45,22.60
2023,05,14,09,46,22.70
2023,05,14,09,47,22.70
2023,05,14,09,48,22.70
2023,05,14,09,49,22.80
2023,05,14,09,50,22.80
2023,05,14,09,51,22.80
2023,05,14,09,52,22.80
2023,05,14,09,53,22.80
2023,05,14,09,54,22.90
2023,05,14,09,55,22.90
2023,05,14,09,56,23.00
2023,05,14,09,57,23.10
2023,05,14,09,58,23.10
2023,05,14,09,59,23.20
2023,05,14,10,00,23.20
2023,05,14,10,01,23.20
2023,05,14,10,02,23.20
2023,05,14,10,03,23.20
2023,05,14,10,04,23.20
2023,05,14,10,05,23.10
2023,05,14,10,06,23.20
2023,05,14,10,07,23.20
2023,05,14,10,08,23.20
2023,05,14,10,09,23.30
2023,05,14,10,10,23.30
2023,05,14,10,11,23.40
2023,05,14,10,12,23.50
2023,05,14,10,13,23.50
2023,05,14,10,14,23.60
2023,05,14,10,15,23.60
2023,05,14,10,16,23.60
2023,05,14,10,17,23.60
2023,05,14,10,18,23.70
2023,05,14,10,19,23.70
2023,05,14,10,20,23.70
2023,05,14,10,21,23.70
2023,05,14,10,22,23.70
2023,05,14,10,23,23.80
2023,05,14,10,24,23.80
2023,05,14,10,25,23.80
2023,05,14,10,26,23.90
2023,05,14,10,27,23.90
2023,05,14,10,28,24.00
2023,05,14,10,29,24.00
2023,05,14,10,30,24.10
2023,05,14,10,31,24.10
2023,05,14,10,32,24.10
2023,05,14,10,33,24.20
2023,05,14,10,34,24.20
2023,05,14,10,35,24.20
2023,05,14,10,36,24.20
2023,05,14,10,37,24.10
2023,05,14,10,38,24.10
2023,05,14,10,39,24.20
2023,05,14,10,40,24.20
2023,05,14,10,41,24.20
2023,05,14,10,42,24.20
2023,05,14,10,43,24.20
2023,05,14,10,44,24.30
2023,05,14,10,45,24.30
2023,05,14,10,46,24.30
2023,05,14,10,47,24.20
2023,05,14,10,48,24.20
2023,05,14,10,49,24.30
2023,05,14,10,50,24.30
2023,05,14,10,51,24.30
2023,05,14,10,52,24.30
2023,05,14,10,53,24.20
2023,05,14,10,54,24.30
2023,05,14,10,55,24.30
2023,05,14,10,56,24.30
2023,05,14,10,57,24.30
2023,05,14,10,58,24.40
2023,05,14,10,59,24.40
2023,05,14,11,00,24.50
2023,05,14,11,01,24.60
2023,05,14,11,02,24.70
2023,05,14,11,03,24.80
2023,05,14,11,04,24.90
2023,05,14,11,05,25.00
2023,05,14,11,06,25.10
2023,05,14,11,07,25.10
2023,05,14,11,08,25.20
2023,05,14,11,09,25.20
2023,05,14,11,10,25.20
2023,05,14,11,11,25.20
2023,05,14,11,12,25.20
2023,05,14,11,13,25.20
2023,05,14,11,14,25.20
2023,05,14,11,15,25.30
2023,05,14,11,16,25.30
2023,05,14,11,17,25.40
2023,05,14,11,18,25.50
2023,05,14,11,19,25.50
2023,05,14,11,20,25.50
2023,05,14,11,21,25.40
2023,05,14,11,22,25.30
2023,05,14,11,23,25.30
2023,05,14,11,24,25.30
2023,05,14,11,25,25.30
2023,05,14,11,26,25.30
2023,05,14,11,27,25.30
2023,05,14,11,28,25.30
2023,05,14,11,29,25.30
2023,05,14,11,30,25.30
2023,05,14,11,31,25.30
2023,05,14,11,32,25.30
2023,05,14,11,33,25.40
2023,05,14,11,34,25.40
2023,05,14,11,35,25.40
2023,05,14,11,36,25.40
2023,05,14,11,37,25.50
2023,05,14,11,38,25.50
2023,05,14,11,39,25.50
2023,05,14,11,40,25.50
2023,05,14,11,41,25.50
2023,05,14,11,42,25.60
2023,05,14,11,43,25.60
2023,05,14,11,44,25.70
2023,05,14,11,45,25.70
2023,05,14,11,46,25.80
2023,05,14,11,47,25.80
2023,05,14,11,48,25.90
2023,05,14,11,49,25.90
2023,05,14,11,50,25.80
2023,05,14,11,51,25.80
2023,05,14,11,52,25.80
2023,05,14,11,53,25.80
2023,05,14,11,54,25.80
2023,05,14,11,55,25.90
2023,05,14,11,56,25.90
2023,05,14,11,57,25.90
2023,05,14,11,58,26.00
2023,05,14,11,59,26.00
2023,05,14,12,00,26.00
2023,05,14,12,01,25.90
2023,05,14,12,02,25.90
2023,05,14,12,03,25.90
2023,05,14,12,04,25.90
2023,05,14,12,05,25.90
2023,05,14,12,06,25.90
2023,05,14,12,07,25.90
2023,05,14,12,08,25.90
2023,05,14,12,09,26.00
2023,05,14,12,10,25.90
2023,05,14,12,11,25.90
2023,05,14,12,12,25.90
2023,05,14,12,13,25.90
2023,05,14,12,14,25.90
2023,05,14,12,15,25.90
2023,05,14,12,16,25.90
2023,05,14,12,17,26.00
2023,05,14,12,18,26.10
2023,05,14,12,19,26.20
2023,05,14,12,20,26.20
2023,05,14,12,21,26.10
2023,05,14,12,22,26.10
2023,05,14,12,23,26.10
2023,05,14,12,24,26.10
2023,05,14,12,25,26.10
2023,05,14,12,26,26.00
2023,05,14,12,27,26.00
2023,05,14,12,28,25.90
2023,05,14,12,29,26.00
2023,05,14,12,30,26.00
2023,05,14,12,31,26.00
2023,05,14,12,32,26.00
2023,05,14,12,33,26.00
2023,05,14,12,34,26.10
2023,05,14,12,35,26.10
2023,05,14,12,36,26.30
2023,05,14,12,37,26.40
2023,05,14,12,38,26.40
2023,05,14,12,39,26.40
2023,05,14,12,40,26.40
2023,05,14,12,41,26.50
2023,05,14,12,42,26.50
2023,05,14,12,43,26.60
2023,05,14,12,44,26.70
2023,05,14,12,45,26.60
2023,05,14,12,46,26.60
2023,05,14,12,47,26.60
2023,05,14,12,48,26.60
2023,05,14,12,49,26.70
2023,05,14,12,50,26.90
2023,05,14,12,51,27.10
2023,05,14,12,52,27.20
2023,05,14,12,53,27.30
2023,05,14,12,54,27.30
2023,05,14,12,55,27.30
2023,05,14,12,56,27.20
2023,05,14,12,57,27.00
2023,05,14,12,58,26.90
2023,05,14,12,59,26.80
2023,05,14,13,00,26.70
2023,05,14,13,01,26.60
2023,05,14,13,02,26.50
2023,05,14,13,03,26.40
2023,05,14,13,04,26.40
2023,05,14,13,05,26.50
2023,05,14,13,06,26.60
2023,05,14,13,07,26.60
2023,05,14,13,08,26.60
2023,05,14,13,09,26.60
2023,05,14,13,10,26.50
2023,05,14,13,11,26.40
2023,05,14,13,12,26.40
2023,05,14,13,13,26.40
2023,05,14,13,14,26.40
2023,05,14,13,15,26.50
2023,05,14,13,16,26.50
2023,05,14,13,17,26.60
2023,05,14,13,18,26.70
2023,05,14,13,19,26.80
2023,05,14,13,20,26.80
2023,05,14,13,21,26.80
2023,05,14,13,22,26.80
2023,05,14,13,23,26.90
2023,05,14,13,24,27.00
2023,05,14,13,25,27.10
2023,05,14,13,26,27.20
2023,05,14,13,27,27.30
2023,05,14,13,28,27.20
2023,05,14,13,29,27.20
2023,05,14,13,30,27.20
2023,05,14,13,31,27.20
2023,05,14,13,32,27.20
2023,05,14,13,33,27.20
2023,05,14,13,34,27.30
2023,05,14,13,35,27.30
2023,05,14,13,36,27.30
2023,05,14,13,37,27.30
2023,05,14,13,38,27.30
2023,05,14,13,39,27.40
2023,05,14,13,40,27.40
2023,05,14,13,41,27.40
2023,05,14,13,42,27.40
2023,05,14,13,43,27.40
2023,05,14,13,44,27.40
2023,05,14,13,45,27.50
2023,05,14,13,46,27.60
2023,05,14,13,47,27.70
2023,05,14,13,48,27.80
2023,05,14,13,49,27.80
2023,05,14,13,50,27.80
2023,05,14,13,51,27.80
2023,05,14,13,52,27.80
2023,05,14,13,53,27.70
2023,05,14,13,54,27.70
2023,05,14,13,55,27.60
2023,05,14,13,56,27.60
2023,05,14,13,57,27.50
2023,05,14,13,58,27.50
2023,05,14,13,59,27.50
2023,05,14,14,00,27.50
2023,05,14,14,01,27.50
2023,05,14,14,02,27.40
2023,05,14,14,03,27.40
2023,05,14,14,04,27.40
2023,05,14,14,05,27.40
2023,05,14,14,06,27.40
2023,05,14,14,07,27.50
2023,05,14,14,08,27.50
2023,05,14,14,09,27.60
2023,05,14,14,10,27.60
2023,05,14,14,11,27.60
2023,05,14,14,12,27.70
2023,05,14,14,13,27.80
2023,05,14,14,14,27.80
2023,05,14,14,15,27.90
2023,05,14,14,16,27.90
2023,05,14,14,17,27.90
2023,05,14,14,18,28.00
2023,05,14,14,19,28.10
2023,05,14,14,20,28.20
2023,05,14,14,21,28.20
2023,05,14,14,22,28.30
2023,05,14,14,23,28.40
2023,05,14,14,24,28.40
2023,05,14,14,25,28.50
2023,05,14,14,26,28.50
2023,05,14,14,27,28.50
2023,05,14,14,28,28.50
2023,05,14,14,29,28.50
2023,05,14,14,30,28.50
2023,05,14,14,31,28.40
2023,05,14,14,32,28.40
2023,05,14,14,33,28.50
2023,05,14,14,34,28.50
2023,05,14,14,35,28.50
2023,05,14,14,36,28.60
2023,05,14,14,37,28.60
2023,05,14,14,38,28.70
2023,05,14,14,39,28.70
2023,05,14,14,40,28.70
2023,05,14,14,41,28.70
2023,05,14,14,42,28.60
2023,05,14,14,43,28.60
2023,05,14,14,44,28.50
2023,05,14,14,45,28.50
2023,05,14,14,46,28.50
2023,05,14,14,47,28.40
2023,05,14,14,48,28.40
2023,05,14,14,49,28.40
2023,05,14,14,50,28.50
2023,05,14,14,51,28.50
2023,05,14,14,52,28.60
2023,05,14,14,53,28.60
2023,05,14,14,54,28.60
2023,05,14,14,55,28.60
2023,05,14,14,56,28.60
2023,05,14,14,57,28.60
2023,05,14,14,58,28.60
2023,05,14,14,59,28.60
2023,05,14,15,00,28.70
2023,05,14,15,01,28.70
2023,05,14,15,02,28.70
2023,05,14,15,03,28.60
2023,05,14,15,04,28.70
2023,05,14,15,05,28.70
2023,05,14,15,06,28.70
2023,05,14,15,07,28.70
2023,05,14,15,08,28.70
2023,05,14,15,09,28.70
2023,05,14,15,10,28.70
2023,05,14,15,11,28.70
2023,05,14,15,12,28.70
2023,05,14,15,13,28.60
2023,05,14,15,14,28.60
2023,05,14,15,15,28.70
2023,05,14,15,16,28.70
2023,05,14,15,17,28.80
2023,05,14,15,18,28.90
2023,05,14,15,19,29.00
2023,05,14,15,20,29.20
2023,05,14,15,21,29.30
2023,05,14,15,22,29.50
2023,05,14,15,23,29.60
2023,05,14,15,24,29.70
2023,05,14,15,25,29.80
2023,05,14,15,26,29.80
2023,05,14,15,27,29.80
2023,05,14,15,28,29.80
2023,05,14,15,29,29.80
2023,05,14,15,30,29.80
2023,05,14,15,31,29.80
2023,05,14,15,32,29.80
2023,05,14,15,33,29.90
2023,05,14,15,34,30.00
2023,05,14,15,35,30.00
2023,05,14,15,36,30.10
2023,05,14,15,37,30.10
2023,05,14,15,38,30.20
2023,05,14,15,39,30.30
2023,05,14,15,40,30.30
2023,05,14,15,41,30.30
2023,05,14,15,42,30.40
2023,05,14,15,43,30.40
2023,05,14,15,44,30.40
2023,05,14,15,45,30.40
2023,05,14,15,46,30.50
2023,05,14,15,47,30.50
2023,05,14,15,48,30.50
2023,05,14,15,49,30.50
2023,05,14,15,50,30.50
2023,05,14,15,51,30.40
2023,05,14,15,52,30.40
2023,05,14,15,53,30.40
2023,05,14,15,54,30.30
2023,05,14,15,55,30.30
2023,05,14,15,56,30.40
2023,05,14,15,57,30.40
2023,05,14,15,58,30.40
2023,05,14,15,59,30.50
2023,05,14,16,00,30.60
2023,05,14,16,01,30.70
2023,05,14,16,02,30.80
2023,05,14,16,03,30.80
2023,05,14,16,04,30.80
2023,05,14,16,05,30.80
2023,05,14,16,06,30.70
2023,05,14,16,07,30.70
2023,05,14,16,08,30.60
2023,05,14,16,09,30.60
2023,05,14,16,10,30.60
2023,05,14,16,11,30.60
2023,05,14,16,12,30.70
2023,05,14,16,13,30.80
2023,05,14,16,14,30.90
2023,05,14,16,15,31.00
2023,05,14,16,16,31.00
2023,05,14,16,17,31.10
2023,05,14,16,18,31.10
2023,05,14,16,19,31.00
2023,05,14,16,20,31.00
2023,05,14,16,21,30.90
2023,05,14,16,22,30.90
2023,05,14,16,23,31.00
2023,05,14,16,24,31.00
2023,05,14,16,25,31.00
2023,05,14,16,26,31.10
2023,05,14,16,27,31.10
2023,05,14,16,28,31.10
2023,05,14,16,29,31.10
2023,05,14,16,30,31.10
2023,05,14,16,31,31.10
2023,05,14,16,32,31.10
2023,05,14,16,33,31.20
2023,05,14,16,34,31.20
2023,05,14,16,35,31.30
2023,05,14,16,36,31.30
2023,05,14,16,37,31.30
2023,05,14,16,38,31.40
2023,05,14,16,39,31.40
2023,05,14,16,40,31.50
2023,05,14,16,41,31.60
2023,05,14,16,42,31.60
2023,05,14,16,43,31.70
2023,05,14,16,44,31.70
2023,05,14,16,45,31.70
2023,05,14,16,46,31.60
2023,05,14,16,47,31.60
2023,05,14,16,48,31.60
2023,05,14,16,49,31.50
2023,05,14,16,50,31.50
2023,05,14,16,51,31.40
2023,05,14,16,52,31.40
2023,05,14,16,53,31.40
2023,05,14,16,54,31.40
2023,05,14,16,55,31.40
2023,05,14,16,56,31.40
2023,05,14,16,57,31.40
2023,05,14,16,58,31.30
2023,05,14,16,59,31.40
2023,05,14,17,00,31.40
2023,05,14,17,01,31.40
2023,05,14,17,02,31.50
2023,05,14,17,03,31.60
2023,05,14,17,04,31.70
2023,05,14,17,05,31.80
2023,05,14,17,06,31.80
2023,05,14,17,07,31.80
2023,05,14,17,08,31.80
2023,05,14,17,09,31.80
2023,05,14,17,10,31.70
2023,05,14,17,11,31.70
2023,05,14,17,12,31.70
2023,05,14,17,13,31.80
2023,05,14,17,14,31.80
2023,05,14,17,15,31.80
2023,05,14,17,16,31.90
2023,05,14,17,17,31.90
2023,05,14,17,18,31.90
2023,05,14,17,19,31.90